This is the latest recevied weather packets stored in our database for station/object N3TTT-13. If no packets are shown the sender has not sent any weather packets the latest 10 day(s).
| Time | Temp. | Humidity | Pressure | Rain* | Wind** | Luminosity | Snow |
|---|---|---|---|---|---|---|---|
| 1778018578 | 26.67° C | 44% | 1010.3 hPa | 0 mm | - | 53 W/m² | - |
| 1778018276 | 26.67° C | 44% | 1010.7 hPa | 0 mm | - | 89 W/m² | - |
| 1778017973 | 26.11° C | 45% | 1010.5 hPa | 0 mm | - | 104 W/m² | - |
| 1778017671 | 26.11° C | 44% | 1010.6 hPa | 0 mm | - | 72 W/m² | - |
| 1778017368 | 26.11° C | 45% | 1010.6 hPa | 0 mm | - | 55 W/m² | - |
| 1778017065 | 26.67° C | 45% | 1010.7 hPa | 0 mm | - | 63 W/m² | - |
| 1778016763 | 26.67° C | 43% | 1010.5 hPa | 0 mm | - | 75 W/m² | - |
| 1778016458 | 26.67° C | 43% | 1010.4 hPa | 0 mm | - | 67 W/m² | - |
| 1778016156 | 27.22° C | 43% | 1010.6 hPa | 0 mm | - | 112 W/m² | - |
| 1778015852 | 26.67° C | 43% | 1010.6 hPa | 0 mm | - | 124 W/m² | - |
| 1778015550 | 26.67° C | 45% | 1010.5 hPa | 0 mm | - | 124 W/m² | - |
| 1778015246 | 26.67° C | 44% | 1010.4 hPa | 0 mm | - | 142 W/m² | - |
| 1778014943 | 26.67° C | 43% | 1010.2 hPa | 0 mm | - | 88 W/m² | - |
| 1778014641 | 26.67° C | 44% | 1010.3 hPa | 0 mm | - | 76 W/m² | - |
| 1778014339 | 26.67° C | 44% | 1010.3 hPa | 0 mm | - | 75 W/m² | - |
| 1778014035 | 26.67° C | 44% | 1010.4 hPa | 0 mm | - | 67 W/m² | - |
| 1778013733 | 27.22° C | 44% | 1010.4 hPa | 0 mm | - | 65 W/m² | - |
| 1778013430 | 27.22° C | 43% | 1010.2 hPa | 0 mm | - | 68 W/m² | - |
| 1778013127 | 27.22° C | 45% | 1010.3 hPa | 0 mm | - | 377 W/m² | - |
| 1778012822 | 27.22° C | 45% | 1010.3 hPa | 0 mm | - | 104 W/m² | - |
| 1778012519 | 26.67° C | 46% | 1010.5 hPa | 0 mm | - | 66 W/m² | - |
| 1778012215 | 27.22° C | 44% | 1010.4 hPa | 0 mm | - | 68 W/m² | - |
| 1778011913 | 27.22° C | 45% | 1010.5 hPa | 0 mm | - | 106 W/m² | - |
| 1778011611 | 27.22° C | 43% | 1010.6 hPa | 0 mm | - | 97 W/m² | - |
| 1778011307 | 27.22° C | 44% | 1010.8 hPa | 0 mm | - | 78 W/m² | - |
* Rain latest hour (hover to see other rain measurements)
** Current wind speed in m/s (hover to see current wind gust speed)